User: anonymous   Login
Location: Albany
(35.0000°S, 118.0000°E)
Time: 00:39:09
(UTC-05:00)
Language:

Atlas Centaur 2 - Orbit

View from above orbital plane
View from above orbital plane
View from above satellite
View from above satellite

Ground track
Ground track

The orbit data is extracted from the following two-line orbital elements,

1 00694U 63047A   15030.85011122  .00003618  00000-0  47380-3 0  6965
2 00694 030.3543 258.0448 0594459 064.5618 024.4406 14.00420650560818
Epoch (UTC): 30 January 2015 20:24:09
Eccentricity: 0.0594459
inclination: 30.3543°
perigee height: 460 km
apogee height: 1324 km
right ascension of ascending node: 258.0448°
argument of perigee: 64.5618°
revolutions per day: 14.00420650
mean anomaly at epoch: 24.4406°
orbit number at epoch: 56081

The dashed part of the orbit path shows where the satellite is in the earth's shadow,  

DLR